ISR272 EDDS-LLBG

Flight info

Callsign ISR272
Flight time N/A
Altitude 35000
Route ABTAL4B ABTAL L173 RIXED Y161 MAH DCT VAVOR DCT RADIZ DCT GORPA DCT DEVUL DCT REMSO DCT MEDUX UM867 KOGAT/N0428F370 DCT ERANA UL737 TSL UN130 MES UL609 ALKIS L609 ZUKKO
Aircraft A320/M-SDE2FGHIJ1LORVWY/SB1

Departure

Time N/A
Airport Stuttgart Airport (EDDS)

Arrival

Time 2026-05-07 20:51
Airport Ben Gurion International Airport (LLBG)
Time Latitude Longitude Altitude Speed Heading
2026-05-07 19:29 39.40753 24.41250 37112 ft 556 kts 136°
2026-05-07 19:29 39.38047 24.44816 37113 ft 556 kts 137°
2026-05-07 19:29 39.32619 24.51962 37116 ft 557 kts 136°
2026-05-07 19:30 39.27225 24.59154 37120 ft 558 kts 136°
2026-05-07 19:30 39.21851 24.66375 37131 ft 558 kts 136°
2026-05-07 19:31 39.16465 24.73577 37139 ft 558 kts 136°
2026-05-07 19:31 39.11056 24.80746 37140 ft 558 kts 136°
2026-05-07 19:32 39.05624 24.87863 37141 ft 557 kts 137°
2026-05-07 19:32 39.00155 24.94933 37119 ft 557 kts 137°
2026-05-07 19:33 38.94684 25.01975 37153 ft 557 kts 137°
2026-05-07 19:33 38.89257 25.08981 37147 ft 557 kts 136°
2026-05-07 19:34 38.83791 25.16034 37149 ft 557 kts 137°
2026-05-07 19:34 38.78314 25.23069 37149 ft 557 kts 137°
2026-05-07 19:35 38.72829 25.30096 37151 ft 557 kts 137°
2026-05-07 19:35 38.67349 25.37118 37141 ft 558 kts 136°
2026-05-07 19:36 38.61855 25.44134 37147 ft 558 kts 136°
2026-05-07 19:36 38.56347 25.51123 37149 ft 558 kts 136°
2026-05-07 19:37 38.50834 25.58115 37153 ft 558 kts 136°
2026-05-07 19:37 38.45326 25.65111 37165 ft 559 kts 136°
2026-05-07 19:38 38.39806 25.72091 37135 ft 559 kts 136°
2026-05-07 19:38 38.34274 25.79061 37147 ft 559 kts 136°
2026-05-07 19:39 38.28751 25.86034 37152 ft 559 kts 136°
2026-05-07 19:39 38.23197 25.92973 37149 ft 559 kts 138°
2026-05-07 19:40 38.17384 25.99543 37147 ft 559 kts 141°
2026-05-07 19:40 38.11419 26.05885 37130 ft 559 kts 141°
2026-05-07 19:41 38.05491 26.12290 37147 ft 560 kts 140°
2026-05-07 19:41 37.99622 26.18793 37165 ft 560 kts 140°
2026-05-07 19:42 37.93761 26.25312 37171 ft 560 kts 140°
2026-05-07 19:42 37.87874 26.31785 37175 ft 561 kts 140°
2026-05-07 19:43 37.81964 26.38237 37162 ft 561 kts 140°
2026-05-07 19:43 37.76047 26.44669 37165 ft 561 kts 140°
2026-05-07 19:44 37.70121 26.51103 37175 ft 562 kts 140°
2026-05-07 19:44 37.64201 26.57527 37196 ft 562 kts 139°
2026-05-07 19:45 37.58280 26.63961 37183 ft 562 kts 139°
2026-05-07 19:45 37.52353 26.70385 37177 ft 562 kts 140°
2026-05-07 19:46 37.46419 26.76803 37171 ft 562 kts 140°
2026-05-07 19:46 37.40480 26.83195 37171 ft 562 kts 140°
2026-05-07 19:47 37.34664 26.89763 37177 ft 562 kts 135°
2026-05-07 19:47 37.29065 26.96627 37169 ft 562 kts 134°
2026-05-07 19:48 37.23482 27.03504 37150 ft 563 kts 135°
2026-05-07 19:48 37.17804 27.10265 37157 ft 563 kts 136°
2026-05-07 19:49 37.12086 27.16972 37161 ft 563 kts 136°
2026-05-07 19:49 37.06425 27.23651 37173 ft 563 kts 135°
2026-05-07 19:50 37.00742 27.30391 37174 ft 563 kts 135°
2026-05-07 19:50 36.95051 27.37113 37166 ft 563 kts 135°
2026-05-07 19:51 36.89344 27.43826 37153 ft 563 kts 135°
2026-05-07 19:51 36.83636 27.50525 37175 ft 563 kts 135°
2026-05-07 19:52 36.77920 27.57218 37170 ft 563 kts 135°
2026-05-07 19:52 36.72208 27.63897 37159 ft 563 kts 136°
2026-05-07 19:53 36.66497 27.70558 37151 ft 562 kts 135°
2026-05-07 19:53 36.60786 27.77205 37125 ft 562 kts 135°
2026-05-07 19:54 36.55065 27.83854 37146 ft 563 kts 135°
2026-05-07 19:54 36.49337 27.90489 37159 ft 563 kts 135°
2026-05-07 19:55 36.43605 27.97123 37174 ft 563 kts 135°
2026-05-07 19:55 36.37870 28.03744 37179 ft 563 kts 136°
2026-05-07 19:56 36.32509 28.10775 37194 ft 558 kts 122°
2026-05-07 19:56 36.28027 28.18529 37138 ft 557 kts 121°
2026-05-07 19:57 36.23492 28.26323 37144 ft 557 kts 121°
2026-05-07 19:57 36.18956 28.34105 37149 ft 558 kts 121°
2026-05-07 19:58 36.14411 28.41884 37168 ft 558 kts 122°
2026-05-07 19:58 36.09871 28.49655 37162 ft 557 kts 122°
2026-05-07 19:59 36.05331 28.57418 37166 ft 557 kts 122°
2026-05-07 19:59 36.00781 28.65169 37163 ft 557 kts 122°
2026-05-07 20:00 35.96230 28.72903 37183 ft 556 kts 122°
2026-05-07 20:00 35.91692 28.80601 37169 ft 554 kts 122°
2026-05-07 20:01 35.87157 28.88281 37165 ft 554 kts 122°
2026-05-07 20:01 35.82625 28.95953 37182 ft 554 kts 122°
2026-05-07 20:02 35.78088 29.03596 37182 ft 551 kts 123°
2026-05-07 20:02 35.73572 29.11182 37181 ft 548 kts 123°
2026-05-07 20:03 35.69074 29.18745 37176 ft 547 kts 123°
2026-05-07 20:03 35.64569 29.26273 37181 ft 546 kts 123°
2026-05-07 20:04 35.60078 29.33763 37188 ft 542 kts 123°
2026-05-07 20:04 35.55616 29.41202 37183 ft 540 kts 123°
2026-05-07 20:05 35.51196 29.48558 37160 ft 538 kts 123°
2026-05-07 20:05 35.46746 29.55944 37162 ft 538 kts 124°
2026-05-07 20:06 35.42292 29.63319 37171 ft 537 kts 124°
2026-05-07 20:06 35.37844 29.70664 37169 ft 536 kts 124°
2026-05-07 20:07 35.33402 29.77996 37167 ft 536 kts 124°
2026-05-07 20:07 35.28955 29.85311 37188 ft 535 kts 124°
2026-05-07 20:08 35.24521 29.92596 37185 ft 532 kts 124°
2026-05-07 20:08 35.20100 29.99835 37180 ft 530 kts 125°
2026-05-07 20:09 35.15585 30.06957 37177 ft 530 kts 127°
2026-05-07 20:10 35.09409 30.16252 37167 ft 529 kts 127°
2026-05-07 20:10 35.04743 30.23269 37167 ft 529 kts 127°
2026-05-07 20:11 35.00179 30.30222 37164 ft 528 kts 127°
2026-05-07 20:11 34.95594 30.37222 37165 ft 528 kts 127°
2026-05-07 20:12 34.90993 30.44199 37193 ft 527 kts 127°
2026-05-07 20:12 34.86410 30.51125 37192 ft 524 kts 127°
2026-05-07 20:13 34.81847 30.58016 37184 ft 522 kts 127°
2026-05-07 20:13 34.77294 30.64882 37180 ft 521 kts 127°
2026-05-07 20:14 34.72743 30.71730 37145 ft 521 kts 127°
2026-05-07 20:14 34.68181 30.78577 37141 ft 522 kts 127°
2026-05-07 20:15 34.63603 30.85433 37143 ft 523 kts 127°
2026-05-07 20:15 34.59054 30.92324 37145 ft 523 kts 126°
2026-05-07 20:16 34.54669 30.99364 37170 ft 522 kts 124°
2026-05-07 20:16 34.50352 31.06426 37181 ft 520 kts 124°
2026-05-07 20:17 34.45997 31.13426 37177 ft 519 kts 125°
2026-05-07 20:17 34.41618 31.20383 37173 ft 519 kts 125°
2026-05-07 20:18 34.37238 31.27319 37188 ft 518 kts 126°
2026-05-07 20:18 34.32872 31.34225 37169 ft 516 kts 126°
2026-05-07 20:19 34.28519 31.41106 37168 ft 515 kts 126°
2026-05-07 20:19 34.24204 31.47934 37166 ft 514 kts 126°
2026-05-07 20:20 34.19859 31.54790 37176 ft 514 kts 126°
2026-05-07 20:20 34.15516 31.61618 37180 ft 512 kts 126°
2026-05-07 20:21 34.11189 31.68421 37175 ft 510 kts 126°
2026-05-07 20:21 34.06865 31.75201 37168 ft 509 kts 126°
2026-05-07 20:22 34.02540 31.81964 37177 ft 509 kts 126°
2026-05-07 20:22 33.98224 31.88707 37169 ft 507 kts 126°
2026-05-07 20:23 33.93909 31.95428 37167 ft 507 kts 126°
2026-05-07 20:23 33.89594 32.02125 37162 ft 506 kts 126°
2026-05-07 20:24 33.85273 32.08812 37167 ft 506 kts 127°
2026-05-07 20:24 33.80878 32.15415 37167 ft 505 kts 128°
2026-05-07 20:25 33.76438 32.21959 37159 ft 505 kts 128°
2026-05-07 20:25 33.72009 32.28495 37158 ft 504 kts 128°
2026-05-07 20:26 33.67632 32.35003 37155 ft 504 kts 128°
2026-05-07 20:26 33.63230 32.41546 37156 ft 503 kts 128°
2026-05-07 20:27 33.58823 32.48072 37153 ft 503 kts 128°
2026-05-07 20:27 33.54412 32.54580 37146 ft 503 kts 128°
2026-05-07 20:28 33.50001 32.61079 37151 ft 502 kts 128°
2026-05-07 20:28 33.45600 32.67569 37163 ft 501 kts 128°
2026-05-07 20:29 33.41201 32.74030 37154 ft 500 kts 128°
2026-05-07 20:29 33.36804 32.80462 37152 ft 499 kts 128°
2026-05-07 20:30 33.32405 32.86888 37149 ft 499 kts 128°
2026-05-07 20:30 33.28016 32.93305 37158 ft 498 kts 128°
2026-05-07 20:31 33.23634 32.99712 37158 ft 497 kts 128°
2026-05-07 20:31 33.19260 33.06098 37151 ft 496 kts 128°
2026-05-07 20:32 33.14992 33.12569 37135 ft 496 kts 126°
2026-05-07 20:32 33.12895 33.15846 36648 ft 499 kts 126°
2026-05-07 20:32 33.10777 33.19169 35783 ft 504 kts 126°
2026-05-07 20:32 33.08659 33.22482 35201 ft 501 kts 126°
2026-05-07 20:33 33.06547 33.25761 34213 ft 498 kts 126°
2026-05-07 20:33 33.04423 33.29034 32781 ft 500 kts 126°
2026-05-07 20:33 33.02284 33.32309 31309 ft 502 kts 126°
2026-05-07 20:33 33.00140 33.35578 30391 ft 494 kts 126°
2026-05-07 20:34 32.98078 33.38714 30222 ft 468 kts 126°
2026-05-07 20:34 32.96123 33.41689 30012 ft 445 kts 126°
2026-05-07 20:34 32.94249 33.44550 29425 ft 433 kts 126°
2026-05-07 20:34 32.92401 33.47383 28032 ft 438 kts 126°
2026-05-07 20:35 32.90494 33.50311 26067 ft 457 kts 126°
2026-05-07 20:35 32.88539 33.53311 24239 ft 472 kts 127°
2026-05-07 20:35 32.86483 33.56456 22478 ft 478 kts 127°
2026-05-07 20:35 32.84464 33.59540 21698 ft 475 kts 127°
2026-05-07 20:36 32.82439 33.62563 21310 ft 462 kts 130°
2026-05-07 20:36 32.80243 33.65325 20547 ft 458 kts 134°
2026-05-07 20:36 32.78036 33.68038 19818 ft 455 kts 134°
2026-05-07 20:36 32.75843 33.70727 19116 ft 451 kts 134°
2026-05-07 20:37 32.73672 33.73393 18433 ft 447 kts 134°
2026-05-07 20:37 32.71524 33.76041 17720 ft 443 kts 134°
2026-05-07 20:37 32.69402 33.78663 17098 ft 437 kts 134°
2026-05-07 20:37 32.67307 33.81251 16494 ft 432 kts 134°
2026-05-07 20:38 32.65232 33.83806 15891 ft 428 kts 134°
2026-05-07 20:38 32.63173 33.86332 15276 ft 424 kts 134°
2026-05-07 20:38 32.61130 33.88836 14653 ft 420 kts 134°
2026-05-07 20:38 32.59102 33.91321 14017 ft 418 kts 134°
2026-05-07 20:39 32.57091 33.93786 13314 ft 415 kts 135°
2026-05-07 20:39 32.55098 33.96232 12776 ft 408 kts 135°
2026-05-07 20:39 32.53181 33.98613 12636 ft 390 kts 134°
2026-05-07 20:39 32.51357 34.00899 12508 ft 374 kts 134°
2026-05-07 20:40 32.49612 34.03093 12391 ft 359 kts 134°
2026-05-07 20:40 32.47920 34.05218 12034 ft 353 kts 134°
2026-05-07 20:40 32.46229 34.07334 11485 ft 356 kts 134°
2026-05-07 20:40 32.44496 34.09498 11284 ft 367 kts 134°
2026-05-07 20:41 32.42764 34.11744 11020 ft 370 kts 128°
2026-05-07 20:41 32.41296 34.14248 10724 ft 371 kts 124°
2026-05-07 20:41 32.39853 34.16773 10434 ft 369 kts 124°
2026-05-07 20:41 32.38423 34.19276 10142 ft 367 kts 124°
2026-05-07 20:42 32.37001 34.21763 9821 ft 363 kts 125°
2026-05-07 20:42 32.35588 34.24224 9536 ft 361 kts 125°
2026-05-07 20:42 32.34184 34.26675 9257 ft 360 kts 125°
2026-05-07 20:42 32.32781 34.29125 8979 ft 358 kts 124°
2026-05-07 20:43 32.31392 34.31547 8693 ft 355 kts 124°
2026-05-07 20:43 32.30013 34.33940 8409 ft 350 kts 124°
2026-05-07 20:43 32.28642 34.36322 8121 ft 351 kts 124°
2026-05-07 20:43 32.27279 34.38694 7856 ft 345 kts 124°
2026-05-07 20:44 32.25955 34.40989 7726 ft 331 kts 124°
2026-05-07 20:44 32.24679 34.43192 7551 ft 320 kts 124°
2026-05-07 20:44 32.23440 34.45333 7358 ft 311 kts 124°
2026-05-07 20:44 32.22237 34.47415 7130 ft 301 kts 123°
2026-05-07 20:45 32.21041 34.49364 6894 ft 287 kts 131°
2026-05-07 20:45 32.19794 34.51177 6474 ft 283 kts 125°
2026-05-07 20:45 32.18743 34.53125 5907 ft 280 kts 120°
2026-05-07 20:45 32.17755 34.55098 5526 ft 279 kts 120°
2026-05-07 20:46 32.16770 34.57027 5252 ft 277 kts 120°
2026-05-07 20:46 32.15753 34.58996 5046 ft 278 kts 121°
2026-05-07 20:46 32.14751 34.60936 4875 ft 276 kts 119°
2026-05-07 20:46 32.13761 34.62853 4649 ft 276 kts 119°
2026-05-07 20:47 32.12783 34.64746 4304 ft 265 kts 118°
2026-05-07 20:47 32.11840 34.66569 3966 ft 255 kts 118°
2026-05-07 20:47 32.10933 34.68324 3639 ft 246 kts 118°
2026-05-07 20:47 32.10059 34.70013 3325 ft 237 kts 118°
2026-05-07 20:48 32.09217 34.71640 3012 ft 228 kts 117°
2026-05-07 20:48 32.08409 34.73202 2715 ft 219 kts 117°
2026-05-07 20:48 32.07629 34.74708 2428 ft 212 kts 117°
2026-05-07 20:48 32.06880 34.76153 2177 ft 201 kts 117°
2026-05-07 20:49 32.06169 34.77524 1893 ft 192 kts 117°
2026-05-07 20:49 32.05498 34.78818 1652 ft 178 kts 117°
2026-05-07 20:49 32.04885 34.79992 1453 ft 161 kts 117°
2026-05-07 20:49 32.04315 34.81080 1228 ft 152 kts 117°
2026-05-07 20:50 32.03777 34.82133 1007 ft 149 kts 117°
2026-05-07 20:50 32.03242 34.83168 832 ft 147 kts 118°
2026-05-07 20:50 32.02711 34.84190 639 ft 145 kts 119°
2026-05-07 20:50 32.02190 34.85199 437 ft 142 kts 120°
2026-05-07 20:51 32.01674 34.86185 241 ft 141 kts 118°
2026-05-07 20:51 32.01167 34.87165 120 ft 133 kts 120°
2026-05-07 20:51 32.00768 34.87939 117 ft 87 kts 121°
2026-05-07 20:51 32.00520 34.88418 121 ft 48 kts 123°
2026-05-07 20:52 32.00333 34.88631 120 ft 29 kts 151°
2026-05-07 20:52 32.00195 34.88699 119 ft 21 kts 166°
2026-05-07 20:52 32.00101 34.88644 119 ft 17 kts 275°
2026-05-07 20:52 32.00161 34.88516 119 ft 19 kts 301°
2026-05-07 20:53 32.00236 34.88372 117 ft 22 kts 302°
2026-05-07 20:53 32.00321 34.88210 118 ft 24 kts 301°
2026-05-07 20:53 32.00406 34.88047 118 ft 19 kts 301°
2026-05-07 20:53 32.00454 34.87948 118 ft 11 kts 284°
2026-05-07 20:54 32.00419 34.87898 120 ft 7 kts 211°
2026-05-07 20:54 32.00383 34.87911 118 ft 6 kts 122°
2026-05-07 20:54 32.00364 34.87949 116 ft 4 kts 121°
2026-05-07 20:54 32.00355 34.87967 117 ft 1 kts 121°
2026-05-07 20:55 32.00354 34.87968 120 ft 0 kts 121°